Regional Weather Roundup
Issued by NWS

Home | Current Version | Previous Version | Text Only | Print | Product List | Glossary Off
Versions: 1 2 3 4 5 6 7 8 9 10 11 12 13 14 15 16 17 18 19 20 21 22 23 24 25 26 27 28 29 30 31 32 33 34 35 36 37 38 39 40 41 42 43 44 45 46 47 48 49 50

000
ASUS43 KBIS 111431
RWRND
NORTH DAKOTA REGIONAL WEATHER ROUNDUP
NATIONAL WEATHER SERVICE EASTERN NORTH DAKOTA/GRAND FORKS ND
800 AM CST THU FEB 11 2016

  NOTE: "FAIR" INDICATES FEW OR NO CLOUDS BELOW 12,000 FEET WITH NO
  SIGNIFICANT WEATHER AND/OR OBSTRUCTIONS TO VISIBILITY.

NDZ001>003-009>011-017-111500-
...NORTHWEST NORTH DAKOTA...

CITY           SKY/WX    TMP DP  RH WIND       PRES   REMARKS
WILLISTON      LGT SNOW  22  18  85 NE7       30.08R FOG     WCI  13
MINOT          CLOUDY    14   7  73 NE5       30.13S WCI   6
MINOT AFB      CLOUDY    11   9  90 E6        30.13S WCI   2
$$

NDZ018>021-031>035-040>046-111500-
...SOUTHWEST NORTH DAKOTA...

CITY           SKY/WX    TMP DP  RH WIND       PRES   REMARKS
BISMARCK       LGT SNOW  20  14  77 E6        30.12F WCI  12
DICKINSON      LGT SNOW  22  19  89 E8        29.99R VSB 3/4 WCI  12
GARRISON         N/A     15  12  88 E7        30.10S WCI   5
HETTINGER      LGT SNOW  29  27  92 SE7       29.99F FOG     WCI  22
$$

NDZ004>008-012>016-024-026-027-054-111500-
...NORTHEAST NORTH DAKOTA...

CITY           SKY/WX    TMP DP  RH WIND       PRES   REMARKS
GRAND FORKS    CLOUDY     6  -1  73 SE7       30.26S WCI  -6
GRAND FORKS AF CLOUDY     7   0  72 SE5       30.25S WCI  -2
DEVILS LAKE    FLURRIES   7   4  87 SE3       30.18F
$$

NDZ022-023-025-028>030-036>039-047>053-111500-
...SOUTHEAST NORTH DAKOTA...

CITY           SKY/WX    TMP DP  RH WIND       PRES   REMARKS
JAMESTOWN      CLOUDY     7   3  84 S7        30.17S WCI  -5
FARGO          CLOUDY     7  -1  70 CALM      30.27S
WAHPETON       CLOUDY     5   1  85 CALM      30.27F
$$



USA.gov is the U.S. government's official web portal to all federal, state and local government web resources and services.